Find Starlink 32766

NORAD ID: 62574 Int'l Des: 2025-006 Owner: SPXS Country: US Constellation: starlink operational
LEOCIRCULAR

Current View

Loading 3D Globe...

About Starlink 32766

Starlink 32766 (NORAD 62574) is a starlink constellation satellite (v2 mini) launched Jan 10, 2025 by SPXS of US. It operates in LEO, CIRCULAR orbit with a mass of 730.00 kg.

About Starlink 32766

Description loading...

Upcoming Passes

Passes for default location (London). Set your location on the main map for personalized predictions.

Altitude History

Loading altitude history...

Two-Line Element Set

1 62574U 25006W 26169.19388810 .00019511 00000-0 71657-3 0 9995
2 62574 43.0015 84.9650 0001411 273.9838 86.0853 15.27584808 80239
Epoch: Jun 18, 2026 • Age: 11 hours

Current Status

Altitude 482.5 km
Velocity 7.63 km/s
Sub-Earth Point 17.33°N, 41.37°W
Launch Date Jan 10, 2025
Age 1.4 years
Type internet

Technical Details

Classification Payload
Mass 730.00 kg
Dry Mass 700.00 kg
Total Mass 730.00 kg
Length 0.30 m
Diameter 4.10 m
Span 29.00 m
Shape Box + pan
Manufacturer SPXS
Bus Type Starlink V2M
Phase Status In Orbit
Owner/State SPXS/US

Most Searched